Location: Newark
(52.2090°N, 4.1550°W)
Time: 14:54:37
(UTC+00:00)

Vanguard 1 - Visible Passes

Search period start: 19 September 2019 00:00
Search period end: 29 September 2019 00:00
Orbit: 654 x 3830 km, 34.3° (Epoch: 19 September)

Date Brightness Start Highest point End Pass type
(mag) Time Alt. Az. Time Alt. Az. Time Alt. Az.
19 Sep 13.3 02:16:39 27° S 02:23:25 32° SSE 02:37:45 10° ESE visible
19 Sep 12.9 04:29:21 14° SW 04:46:10 40° S 04:58:39 10° ESE visible
20 Sep 13.7 00:23:30 19° SE 00:23:30 19° SE 00:34:23 10° ESE visible
20 Sep 13.2 02:36:11 29° SSW 02:44:12 36° SSE 02:58:57 10° ESE visible
20 Sep 12.9 04:48:52 12° WSW 05:06:58 41° S 05:19:20 10° ESE visible
21 Sep 13.5 00:43:00 25° SE 00:43:00 25° SE 00:56:44 10° E visible
21 Sep 13.1 02:55:41 29° SSW 03:05:01 39° SSE 03:20:00 10° ESE visible
21 Sep 12.9 05:08:59 10° WSW 05:27:44 40° S 05:39:54 10° SE visible
22 Sep 13.4 01:02:28 29° SSE 01:02:49 29° SSE 01:18:31 10° E visible
22 Sep 13.0 03:15:09 28° SW 03:25:52 42° S 03:40:54 10° ESE visible
22 Sep 12.9 05:30:06 10° WSW 05:48:25 39° SSW 06:00:19 10° SE visible
22 Sep 13.9 23:09:16 13° ESE 23:09:16 13° ESE 23:12:17 10° ESE visible
23 Sep 13.2 01:21:56 34° SSE 01:23:27 34° SSE 01:39:58 10° E visible
23 Sep 13.0 03:34:37 26° SW 03:46:44 44° S 04:01:43 10° ESE visible
23 Sep 13.8 23:28:43 18° ESE 23:28:43 18° ESE 23:35:42 10° E visible
24 Sep 13.1 01:41:23 37° S 01:44:10 38° SSE 02:01:12 10° E visible
24 Sep 13.0 03:54:04 24° SW 04:07:34 44° S 04:22:25 10° ESE visible
24 Sep 13.6 23:48:10 23° ESE 23:48:10 23° ESE 23:58:03 10° E visible
25 Sep 13.0 02:00:50 39° S 02:04:56 41° SSE 02:22:17 10° ESE visible
25 Sep 13.0 04:13:32 21° WSW 04:28:22 43° S 04:43:00 10° SE visible
26 Sep 13.4 00:07:37 28° SE 00:07:37 28° SE 00:19:51 10° E visible
26 Sep 13.0 02:20:18 40° SSW 02:25:47 44° S 02:43:14 10° ESE visible
26 Sep 13.0 04:32:59 17° WSW 04:49:06 42° SSW 05:03:27 10° SE visible
27 Sep 13.3 00:27:06 33° SE 00:27:06 33° SE 00:41:21 10° E visible
27 Sep 13.0 02:39:47 39° SSW 02:46:38 46° S 03:04:05 10° ESE visible
27 Sep 13.0 04:52:28 14° WSW 05:09:45 39° SSW 05:23:45 10° SE visible
27 Sep 13.9 22:33:54 12° E 22:33:54 12° E 22:35:58 10° E visible
28 Sep 13.2 00:46:36 38° SE 00:46:36 38° SE 01:02:38 10° E visible
28 Sep 13.0 02:59:17 36° SW 03:07:30 46° S 03:24:49 10° ESE visible
28 Sep 13.1 05:11:58 11° W 05:30:16 35° SSW 05:43:50 10° SSE visible
28 Sep 13.8 22:53:26 17° ESE 22:53:26 17° ESE 22:58:23 10° E visible
